Year,Month,Day,Hour,Minute,Value (Times are PST for windspeed in km/hr)
2006,12,13,00,00,12.90
2006,12,13,00,01,14.40
2006,12,13,00,02,11.00
2006,12,13,00,03,7.70
2006,12,13,00,04,13.00
2006,12,13,00,05,17.60
2006,12,13,00,06,16.70
2006,12,13,00,07,15.30
2006,12,13,00,08,24.10
2006,12,13,00,09,23.90
2006,12,13,00,10,17.40
2006,12,13,00,11,24.20
2006,12,13,00,12,12.70
2006,12,13,00,13,13.80
2006,12,13,00,14,12.80
2006,12,13,00,15,15.90
2006,12,13,00,16,8.40
2006,12,13,00,17,7.70
2006,12,13,00,18,15.80
2006,12,13,00,19,23.40
2006,12,13,00,20,18.00
2006,12,13,00,21,19.00
2006,12,13,00,22,18.70
2006,12,13,00,23,11.60
2006,12,13,00,24,15.60
2006,12,13,00,25,21.20
2006,12,13,00,26,21.10
2006,12,13,00,27,15.90
2006,12,13,00,28,13.50
2006,12,13,00,29,8.80
2006,12,13,00,30,11.80
2006,12,13,00,31,17.20
2006,12,13,00,32,9.40
2006,12,13,00,33,11.50
2006,12,13,00,34,14.20
2006,12,13,00,35,12.50
2006,12,13,00,36,7.90
2006,12,13,00,37,9.30
2006,12,13,00,38,6.70
2006,12,13,00,39,2.50
2006,12,13,00,40,10.80
2006,12,13,00,41,19.60
2006,12,13,00,42,13.80
2006,12,13,00,43,15.20
2006,12,13,00,44,9.10
2006,12,13,00,45,16.20
2006,12,13,00,46,11.30
2006,12,13,00,47,13.40
2006,12,13,00,48,9.90
2006,12,13,00,49,11.20
2006,12,13,00,50,14.10
2006,12,13,00,51,15.00
2006,12,13,00,52,13.90
2006,12,13,00,53,12.40
2006,12,13,00,54,10.00
2006,12,13,00,55,11.90
2006,12,13,00,56,13.90
2006,12,13,00,57,13.40
2006,12,13,00,58,9.60
2006,12,13,00,59,8.30
2006,12,13,01,00,7.60
2006,12,13,01,01,16.80
2006,12,13,01,02,15.20
2006,12,13,01,03,10.80
2006,12,13,01,04,8.50
2006,12,13,01,05,6.40
2006,12,13,01,06,7.10
2006,12,13,01,07,10.60
2006,12,13,01,08,11.90
2006,12,13,01,09,13.10
2006,12,13,01,10,9.80
2006,12,13,01,11,8.30
2006,12,13,01,12,14.30
2006,12,13,01,13,12.40
2006,12,13,01,14,9.30
2006,12,13,01,15,11.90
2006,12,13,01,16,15.00
2006,12,13,01,17,9.90
2006,12,13,01,18,16.50
2006,12,13,01,19,14.90
2006,12,13,01,20,14.80
2006,12,13,01,21,16.20
2006,12,13,01,22,11.20
2006,12,13,01,23,15.20
2006,12,13,01,24,15.60
2006,12,13,01,25,15.80
2006,12,13,01,26,14.60
2006,12,13,01,27,11.10
2006,12,13,01,28,12.10
2006,12,13,01,29,16.70
2006,12,13,01,30,12.50
2006,12,13,01,31,8.40
2006,12,13,01,32,12.90
2006,12,13,01,33,14.60
2006,12,13,01,34,15.20
2006,12,13,01,35,11.10
2006,12,13,01,36,15.40
2006,12,13,01,37,13.00
2006,12,13,01,38,12.00
2006,12,13,01,39,13.60
2006,12,13,01,40,11.90
2006,12,13,01,41,13.80
2006,12,13,01,42,13.90
2006,12,13,01,43,13.90
2006,12,13,01,44,9.10
2006,12,13,01,45,15.10
2006,12,13,01,46,18.70
2006,12,13,01,47,11.30
2006,12,13,01,48,15.50
2006,12,13,01,49,14.30
2006,12,13,01,50,15.40
2006,12,13,01,51,11.20
2006,12,13,01,52,11.80
2006,12,13,01,53,24.10
2006,12,13,01,54,20.40
2006,12,13,01,55,12.10
2006,12,13,01,56,13.00
2006,12,13,01,57,14.50
2006,12,13,01,58,20.50
2006,12,13,01,59,11.90
2006,12,13,02,00,11.30
2006,12,13,02,01,19.00
2006,12,13,02,02,9.70
2006,12,13,02,03,13.40
2006,12,13,02,04,16.20
2006,12,13,02,05,15.10
2006,12,13,02,06,16.10
2006,12,13,02,07,14.90
2006,12,13,02,08,16.10
2006,12,13,02,09,15.90
2006,12,13,02,10,12.70
2006,12,13,02,11,10.60
2006,12,13,02,12,15.00
2006,12,13,02,13,15.70
2006,12,13,02,14,7.90
2006,12,13,02,15,12.80
2006,12,13,02,16,12.70
2006,12,13,02,17,15.80
2006,12,13,02,18,15.50
2006,12,13,02,19,14.80
2006,12,13,02,20,9.70
2006,12,13,02,21,9.30
2006,12,13,02,22,10.10
2006,12,13,02,23,10.50
2006,12,13,02,24,13.20
2006,12,13,02,25,13.20
2006,12,13,02,26,14.60
2006,12,13,02,27,10.90
2006,12,13,02,28,10.50
2006,12,13,02,29,6.40
2006,12,13,02,30,10.80
2006,12,13,02,31,12.30
2006,12,13,02,32,10.50
2006,12,13,02,33,10.90
2006,12,13,02,34,9.20
2006,12,13,02,35,9.70
2006,12,13,02,36,10.50
2006,12,13,02,37,11.70
2006,12,13,02,38,7.90
2006,12,13,02,39,9.20
2006,12,13,02,40,11.30
2006,12,13,02,41,8.50
2006,12,13,02,42,9.30
2006,12,13,02,43,8.50
2006,12,13,02,44,7.80
2006,12,13,02,45,9.10
2006,12,13,02,46,7.90
2006,12,13,02,47,6.70
2006,12,13,02,48,10.90
2006,12,13,02,49,9.70
2006,12,13,02,50,7.00
2006,12,13,02,51,12.20
2006,12,13,02,52,9.80
2006,12,13,02,53,8.80
2006,12,13,02,54,12.20
2006,12,13,02,55,8.10
2006,12,13,02,56,6.00
2006,12,13,02,57,6.30
2006,12,13,02,58,8.50
2006,12,13,02,59,9.50
2006,12,13,03,00,6.40
2006,12,13,03,01,8.30
2006,12,13,03,02,7.30
2006,12,13,03,03,9.80
2006,12,13,03,04,9.90
2006,12,13,03,05,6.00
2006,12,13,03,06,7.90
2006,12,13,03,07,7.40
2006,12,13,03,08,9.70
2006,12,13,03,09,7.50
2006,12,13,03,10,7.10
2006,12,13,03,11,7.10
2006,12,13,03,12,7.80
2006,12,13,03,13,6.10
2006,12,13,03,14,6.50
2006,12,13,03,15,5.00
2006,12,13,03,16,6.30
2006,12,13,03,17,7.10
2006,12,13,03,18,7.90
2006,12,13,03,19,1.90
2006,12,13,03,20,4.20
2006,12,13,03,21,5.50
2006,12,13,03,22,12.20
2006,12,13,03,23,13.30
2006,12,13,03,24,14.60
2006,12,13,03,25,9.70
2006,12,13,03,26,10.90
2006,12,13,03,27,14.70
2006,12,13,03,28,14.60
2006,12,13,03,29,9.30
2006,12,13,03,30,10.80
2006,12,13,03,31,11.10
2006,12,13,03,32,10.40
2006,12,13,03,33,18.70
2006,12,13,03,34,16.10
2006,12,13,03,35,15.50
2006,12,13,03,36,14.70
2006,12,13,03,37,11.80
2006,12,13,03,38,14.80
2006,12,13,03,39,22.30
2006,12,13,03,40,22.30
2006,12,13,03,41,16.70
2006,12,13,03,42,13.60
2006,12,13,03,43,5.00
2006,12,13,03,44,8.10
2006,12,13,03,45,9.30
2006,12,13,03,46,14.50
2006,12,13,03,47,19.00
2006,12,13,03,48,26.60
2006,12,13,03,49,22.40
2006,12,13,03,50,13.70
2006,12,13,03,51,18.40
2006,12,13,03,52,9.40
2006,12,13,03,53,13.60
2006,12,13,03,54,11.60
2006,12,13,03,55,15.40
2006,12,13,03,56,7.20
2006,12,13,03,57,17.30
2006,12,13,03,58,12.40
2006,12,13,03,59,13.90
2006,12,13,04,00,13.60
2006,12,13,04,01,10.80
2006,12,13,04,02,6.30
2006,12,13,04,03,5.60
2006,12,13,04,04,6.00
2006,12,13,04,05,14.90
2006,12,13,04,06,20.60
2006,12,13,04,07,8.90
2006,12,13,04,08,13.90
2006,12,13,04,09,11.70
2006,12,13,04,10,7.20
2006,12,13,04,11,3.40
2006,12,13,04,12,6.10
2006,12,13,04,13,7.00
2006,12,13,04,14,8.90
2006,12,13,04,15,8.50
2006,12,13,04,16,9.00
2006,12,13,04,17,11.50
2006,12,13,04,18,10.40
2006,12,13,04,19,9.70
2006,12,13,04,20,10.90
2006,12,13,04,21,4.30
2006,12,13,04,22,9.20
2006,12,13,04,23,6.90
2006,12,13,04,24,8.90
2006,12,13,04,25,5.10
2006,12,13,04,26,6.60
2006,12,13,04,27,11.50
2006,12,13,04,28,9.70
2006,12,13,04,29,5.50
2006,12,13,04,30,7.10
2006,12,13,04,31,6.30
2006,12,13,04,32,8.00
2006,12,13,04,33,9.70
2006,12,13,04,34,8.30
2006,12,13,04,35,9.80
2006,12,13,04,36,10.10
2006,12,13,04,37,10.40
2006,12,13,04,38,5.20
2006,12,13,04,39,4.00
2006,12,13,04,40,4.50
2006,12,13,04,41,9.60
2006,12,13,04,42,7.20
2006,12,13,04,43,2.70
2006,12,13,04,44,4.50
2006,12,13,04,45,4.30
2006,12,13,04,46,5.40
2006,12,13,04,47,16.00
2006,12,13,04,48,11.30
2006,12,13,04,49,16.10
2006,12,13,04,50,18.60
2006,12,13,04,51,21.80
2006,12,13,04,52,10.40
2006,12,13,04,53,12.20
2006,12,13,04,54,20.20
2006,12,13,04,55,17.20
2006,12,13,04,56,14.60
2006,12,13,04,57,11.50
2006,12,13,04,58,11.30
2006,12,13,04,59,19.50
2006,12,13,05,00,12.00
2006,12,13,05,01,10.30
2006,12,13,05,02,34.90
2006,12,13,05,03,14.80
2006,12,13,05,04,14.00
2006,12,13,05,05,11.90
2006,12,13,05,06,10.80
2006,12,13,05,07,14.30
2006,12,13,05,08,12.30
2006,12,13,05,09,10.80
2006,12,13,05,10,17.20
2006,12,13,05,11,9.00
2006,12,13,05,12,11.00
2006,12,13,05,13,6.50
2006,12,13,05,14,5.60
2006,12,13,05,15,4.00
2006,12,13,05,16,6.30
2006,12,13,05,17,8.10
2006,12,13,05,18,9.10
2006,12,13,05,19,9.10
2006,12,13,05,20,5.40
2006,12,13,05,21,8.40
2006,12,13,05,22,10.30
2006,12,13,05,23,6.90
2006,12,13,05,24,13.60
2006,12,13,05,25,11.10
2006,12,13,05,26,10.50
2006,12,13,05,27,14.00
2006,12,13,05,28,11.70
2006,12,13,05,29,12.00
2006,12,13,05,30,12.20
2006,12,13,05,31,10.60
2006,12,13,05,32,14.60
2006,12,13,05,33,14.10
2006,12,13,05,34,12.80
2006,12,13,05,35,9.60
2006,12,13,05,36,12.30
2006,12,13,05,37,9.70
2006,12,13,05,38,9.20
2006,12,13,05,39,10.50
2006,12,13,05,40,14.20
2006,12,13,05,41,8.30
2006,12,13,05,42,6.90
2006,12,13,05,43,9.10
2006,12,13,05,44,7.70
2006,12,13,05,45,10.60
2006,12,13,05,46,8.70
2006,12,13,05,47,7.60
2006,12,13,05,48,14.10
2006,12,13,05,49,15.10
2006,12,13,05,50,13.10
2006,12,13,05,51,9.00
2006,12,13,05,52,12.40
2006,12,13,05,53,16.90
2006,12,13,05,54,17.80
2006,12,13,05,55,12.50
2006,12,13,05,56,19.80
2006,12,13,05,57,10.60
2006,12,13,05,58,11.60
2006,12,13,05,59,6.90
2006,12,13,06,00,7.60
2006,12,13,06,01,11.20
2006,12,13,06,02,15.20
2006,12,13,06,03,9.90
2006,12,13,06,04,10.90
2006,12,13,06,05,10.80
2006,12,13,06,06,13.70
2006,12,13,06,07,8.00
2006,12,13,06,08,10.10
2006,12,13,06,09,12.70
2006,12,13,06,10,9.30
2006,12,13,06,11,7.80
2006,12,13,06,12,12.50
2006,12,13,06,13,9.30
2006,12,13,06,14,9.50
2006,12,13,06,15,8.10
2006,12,13,06,16,8.30
2006,12,13,06,17,6.70
2006,12,13,06,18,7.80
2006,12,13,06,19,8.10
2006,12,13,06,20,8.90
2006,12,13,06,21,7.10
2006,12,13,06,22,5.90
2006,12,13,06,23,6.00
2006,12,13,06,24,8.30
2006,12,13,06,25,9.80
2006,12,13,06,26,11.10
2006,12,13,06,27,12.50
2006,12,13,06,28,12.20
2006,12,13,06,29,15.40
2006,12,13,06,30,13.40
2006,12,13,06,31,9.40
2006,12,13,06,32,9.60
2006,12,13,06,33,7.20
2006,12,13,06,34,11.70
2006,12,13,06,35,11.90
2006,12,13,06,36,16.20
2006,12,13,06,37,12.30
2006,12,13,06,38,7.60
2006,12,13,06,39,10.40
2006,12,13,06,40,17.40
2006,12,13,06,41,10.10
2006,12,13,06,42,14.50
2006,12,13,06,43,9.20
2006,12,13,06,44,20.00
2006,12,13,06,45,14.00
2006,12,13,06,46,10.80
2006,12,13,06,47,13.60
2006,12,13,06,48,24.40
2006,12,13,06,49,14.30
2006,12,13,06,50,14.70
2006,12,13,06,51,9.10
2006,12,13,06,52,18.30
2006,12,13,06,53,27.60
2006,12,13,06,54,12.90
2006,12,13,06,55,27.10
2006,12,13,06,56,24.40
2006,12,13,06,57,29.30
2006,12,13,06,58,20.60
2006,12,13,06,59,21.90
2006,12,13,07,00,16.60
2006,12,13,07,01,11.90
2006,12,13,07,02,17.10
2006,12,13,07,03,9.70
2006,12,13,07,04,10.40
2006,12,13,07,05,12.80
2006,12,13,07,06,14.70
2006,12,13,07,07,13.20
2006,12,13,07,08,11.50
2006,12,13,07,09,12.50
2006,12,13,07,10,15.40
2006,12,13,07,11,19.10
2006,12,13,07,12,16.50
2006,12,13,07,13,15.20
2006,12,13,07,14,11.30
2006,12,13,07,15,14.30
2006,12,13,07,16,15.70
2006,12,13,07,17,13.20
2006,12,13,07,18,9.70
2006,12,13,07,19,5.70
2006,12,13,07,20,5.50
2006,12,13,07,21,8.20
2006,12,13,07,22,16.10
2006,12,13,07,23,21.00
2006,12,13,07,24,19.50
2006,12,13,07,25,21.50
2006,12,13,07,26,31.00
2006,12,13,07,27,16.20
2006,12,13,07,28,25.30
2006,12,13,07,29,15.10
2006,12,13,07,30,24.80
2006,12,13,07,31,39.00
2006,12,13,07,32,27.30
2006,12,13,07,33,29.00
2006,12,13,07,34,17.30
2006,12,13,07,35,17.10
2006,12,13,07,36,9.70
2006,12,13,07,37,25.20
2006,12,13,07,38,22.10
2006,12,13,07,39,19.90
2006,12,13,07,40,14.00
2006,12,13,07,41,14.70
2006,12,13,07,42,11.50
2006,12,13,07,43,22.90
2006,12,13,07,44,20.50
2006,12,13,07,45,26.80
2006,12,13,07,46,17.40
2006,12,13,07,47,10.60
2006,12,13,07,48,26.30
2006,12,13,07,49,21.50
2006,12,13,07,50,15.70
2006,12,13,07,51,15.30
2006,12,13,07,52,19.50
2006,12,13,07,53,14.10
2006,12,13,07,54,13.50
2006,12,13,07,55,20.10
2006,12,13,07,56,19.80
2006,12,13,07,57,27.00
2006,12,13,07,58,25.80
2006,12,13,07,59,17.30
2006,12,13,08,00,17.30
2006,12,13,08,01,21.30
2006,12,13,08,02,28.90
2006,12,13,08,03,17.40
2006,12,13,08,04,19.30
2006,12,13,08,05,21.30
2006,12,13,08,06,18.50
2006,12,13,08,07,18.20
2006,12,13,08,08,9.00
2006,12,13,08,09,29.70
2006,12,13,08,10,16.90
2006,12,13,08,11,24.70
2006,12,13,08,12,19.70
2006,12,13,08,13,30.40
2006,12,13,08,14,26.50
2006,12,13,08,15,22.20
2006,12,13,08,16,21.70
2006,12,13,08,17,19.70
2006,12,13,08,18,32.20
2006,12,13,08,19,27.80
2006,12,13,08,20,27.00
2006,12,13,08,21,25.70
2006,12,13,08,22,33.50
2006,12,13,08,23,22.40
2006,12,13,08,24,35.10
2006,12,13,08,25,21.90
2006,12,13,08,26,24.20
2006,12,13,08,27,26.70
2006,12,13,08,28,21.10
2006,12,13,08,29,15.50
2006,12,13,08,30,11.10
2006,12,13,08,31,17.40
2006,12,13,08,32,12.00
2006,12,13,08,33,24.10
2006,12,13,08,34,23.30
2006,12,13,08,35,11.30
2006,12,13,08,36,26.90
2006,12,13,08,37,16.20
2006,12,13,08,38,16.90
2006,12,13,08,39,27.70
2006,12,13,08,40,14.80
2006,12,13,08,41,11.80
2006,12,13,08,42,12.30
2006,12,13,08,43,29.40
2006,12,13,08,44,20.00
2006,12,13,08,45,15.10
2006,12,13,08,46,23.40
2006,12,13,08,47,12.50
2006,12,13,08,48,13.80
2006,12,13,08,49,24.80
2006,12,13,08,50,23.30
2006,12,13,08,51,24.20
2006,12,13,08,52,17.40
2006,12,13,08,53,19.50
2006,12,13,08,54,23.60
2006,12,13,08,55,23.00
2006,12,13,08,56,15.40
2006,12,13,08,57,17.50
2006,12,13,08,58,18.10
2006,12,13,08,59,11.70
2006,12,13,09,00,26.90
2006,12,13,09,01,25.20
2006,12,13,09,02,26.30
2006,12,13,09,03,19.60
2006,12,13,09,04,26.40
2006,12,13,09,05,15.60
2006,12,13,09,06,20.40
2006,12,13,09,07,28.10
2006,12,13,09,08,24.40
2006,12,13,09,09,22.20
2006,12,13,09,10,35.90
2006,12,13,09,11,32.50
2006,12,13,09,12,26.70
2006,12,13,09,13,34.30
2006,12,13,09,14,26.90
2006,12,13,09,15,20.10
2006,12,13,09,16,38.40
2006,12,13,09,17,32.30
2006,12,13,09,18,25.50
2006,12,13,09,19,15.70
2006,12,13,09,20,19.10
2006,12,13,09,21,26.40
2006,12,13,09,22,26.80
2006,12,13,09,23,14.60
2006,12,13,09,24,17.90
2006,12,13,09,25,13.10
2006,12,13,09,26,24.60
2006,12,13,09,27,30.60
2006,12,13,09,28,32.20
2006,12,13,09,29,30.60
2006,12,13,09,30,34.80
2006,12,13,09,31,29.70
2006,12,13,09,32,26.20
2006,12,13,09,33,26.70
2006,12,13,09,34,33.00
2006,12,13,09,35,25.10
2006,12,13,09,36,22.50
2006,12,13,09,37,26.60
2006,12,13,09,38,21.20
2006,12,13,09,39,27.10
2006,12,13,09,40,34.50
2006,12,13,09,41,20.20
2006,12,13,09,42,21.40
2006,12,13,09,43,17.40
2006,12,13,09,44,16.20
2006,12,13,09,45,21.10
2006,12,13,09,46,16.40
2006,12,13,09,47,9.70
2006,12,13,09,48,15.90
2006,12,13,09,49,13.30
2006,12,13,09,50,16.50
2006,12,13,09,51,18.10
2006,12,13,09,52,20.50
2006,12,13,09,53,16.20
2006,12,13,09,54,24.90
2006,12,13,09,55,24.70
2006,12,13,09,56,14.80
2006,12,13,09,57,19.60
2006,12,13,09,58,14.30
2006,12,13,09,59,19.80
2006,12,13,10,00,22.10
2006,12,13,10,01,23.40
2006,12,13,10,02,22.00
2006,12,13,10,03,20.80
2006,12,13,10,04,25.70
2006,12,13,10,05,26.20
2006,12,13,10,06,20.40
2006,12,13,10,07,30.60
2006,12,13,10,08,23.80
2006,12,13,10,09,18.60
2006,12,13,10,10,20.60
2006,12,13,10,11,20.60
2006,12,13,10,12,24.90
2006,12,13,10,13,15.70
2006,12,13,10,14,15.90
2006,12,13,10,15,25.70
2006,12,13,10,16,19.20
2006,12,13,10,17,19.20
2006,12,13,10,18,29.10
2006,12,13,10,19,28.50
2006,12,13,10,20,11.80
2006,12,13,10,21,17.80
2006,12,13,10,22,22.30
2006,12,13,10,23,18.00
2006,12,13,10,24,20.30
2006,12,13,10,25,25.60
2006,12,13,10,26,16.10
2006,12,13,10,27,27.10
2006,12,13,10,28,24.30
2006,12,13,10,29,22.30
2006,12,13,10,30,17.50
2006,12,13,10,31,22.20
2006,12,13,10,32,21.00
2006,12,13,10,33,23.40
2006,12,13,10,34,26.00
2006,12,13,10,35,28.10
2006,12,13,10,36,29.10
2006,12,13,10,37,23.30
2006,12,13,10,38,22.00
2006,12,13,10,39,26.40
2006,12,13,10,40,22.70
2006,12,13,10,41,27.60
2006,12,13,10,42,15.00
2006,12,13,10,43,26.20
2006,12,13,10,44,28.30
2006,12,13,10,45,28.20
2006,12,13,10,46,24.90
2006,12,13,10,47,19.80
2006,12,13,10,48,20.80
2006,12,13,10,49,29.20
2006,12,13,10,50,19.60
2006,12,13,10,51,18.30
2006,12,13,10,52,22.50
2006,12,13,10,53,24.30
2006,12,13,10,54,17.00
2006,12,13,10,55,18.40
2006,12,13,10,56,29.90
2006,12,13,10,57,20.70
2006,12,13,10,58,21.20
2006,12,13,10,59,24.40
2006,12,13,11,00,28.20
2006,12,13,11,01,14.80
2006,12,13,11,02,19.20
2006,12,13,11,03,26.30
2006,12,13,11,04,24.40
2006,12,13,11,05,21.30
2006,12,13,11,06,21.90
2006,12,13,11,07,27.80
2006,12,13,11,08,24.10
2006,12,13,11,09,26.60
2006,12,13,11,10,31.90
2006,12,13,11,11,23.60
2006,12,13,11,12,24.60
2006,12,13,11,13,28.20
2006,12,13,11,14,24.90
2006,12,13,11,15,16.10
2006,12,13,11,16,15.20
2006,12,13,11,17,26.30
2006,12,13,11,18,16.40
2006,12,13,11,19,33.90
2006,12,13,11,20,24.50
2006,12,13,11,21,26.70
2006,12,13,11,22,28.20
2006,12,13,11,23,20.60
2006,12,13,11,24,19.90
2006,12,13,11,25,22.20
2006,12,13,11,26,29.70
2006,12,13,11,27,18.30
2006,12,13,11,28,16.60
2006,12,13,11,29,31.80
2006,12,13,11,30,22.60
2006,12,13,11,31,28.50
2006,12,13,11,32,28.50
2006,12,13,11,33,25.30
2006,12,13,11,34,30.20
2006,12,13,11,35,22.90
2006,12,13,11,36,30.00
2006,12,13,11,37,25.80
2006,12,13,11,38,24.30
2006,12,13,11,39,24.60
2006,12,13,11,40,22.00
2006,12,13,11,41,28.60
2006,12,13,11,42,28.70
2006,12,13,11,43,27.40
2006,12,13,11,44,29.20
2006,12,13,11,45,27.30
2006,12,13,11,46,25.50
2006,12,13,11,47,19.90
2006,12,13,11,48,17.10
2006,12,13,11,49,16.40
2006,12,13,11,50,24.40
2006,12,13,11,51,17.60
2006,12,13,11,52,20.20
2006,12,13,11,53,13.90
2006,12,13,11,54,11.40
2006,12,13,11,55,15.60
2006,12,13,11,56,16.40
2006,12,13,11,57,18.90
2006,12,13,11,58,13.30
2006,12,13,11,59,16.90
2006,12,13,12,00,17.60
2006,12,13,12,01,22.80
2006,12,13,12,02,22.10
2006,12,13,12,03,24.80
2006,12,13,12,04,27.40
2006,12,13,12,05,17.10
2006,12,13,12,06,17.60
2006,12,13,12,07,26.60
2006,12,13,12,08,23.30
2006,12,13,12,09,19.40
2006,12,13,12,10,20.90
2006,12,13,12,11,28.30
2006,12,13,12,12,22.80
2006,12,13,12,13,24.20
2006,12,13,12,14,23.00
2006,12,13,12,15,18.80
2006,12,13,12,16,32.90
2006,12,13,12,17,30.60
2006,12,13,12,18,26.40
2006,12,13,12,19,21.70
2006,12,13,12,20,26.40
2006,12,13,12,21,16.90
2006,12,13,12,22,21.90
2006,12,13,12,23,25.80
2006,12,13,12,24,22.10
2006,12,13,12,25,18.10
2006,12,13,12,26,26.40
2006,12,13,12,27,20.90
2006,12,13,12,28,26.70
2006,12,13,12,29,20.00
2006,12,13,12,30,17.40
2006,12,13,12,31,22.30
2006,12,13,12,32,22.40
2006,12,13,12,33,19.10
2006,12,13,12,34,25.20
2006,12,13,12,35,15.30
2006,12,13,12,36,16.60
2006,12,13,12,37,24.20
2006,12,13,12,38,18.90
2006,12,13,12,39,19.40
2006,12,13,12,40,20.10
2006,12,13,12,41,19.80
2006,12,13,12,42,13.20
2006,12,13,12,43,29.70
2006,12,13,12,44,28.20
2006,12,13,12,45,24.00
2006,12,13,12,46,20.30
2006,12,13,12,47,27.30
2006,12,13,12,48,16.40
2006,12,13,12,49,19.40
2006,12,13,12,50,22.20
2006,12,13,12,51,17.60
2006,12,13,12,52,28.20
2006,12,13,12,53,20.70
2006,12,13,12,54,22.50
2006,12,13,12,55,30.80
2006,12,13,12,56,21.10
2006,12,13,12,57,18.00
2006,12,13,12,58,23.20
2006,12,13,12,59,15.60
2006,12,13,13,00,22.90
2006,12,13,13,01,22.90
2006,12,13,13,02,16.20
2006,12,13,13,03,20.50
2006,12,13,13,04,24.70
2006,12,13,13,05,15.90
2006,12,13,13,06,18.70
2006,12,13,13,07,16.00
2006,12,13,13,08,27.50
2006,12,13,13,09,18.10
2006,12,13,13,10,30.30
2006,12,13,13,11,23.10
2006,12,13,13,12,20.90
2006,12,13,13,13,23.20
2006,12,13,13,14,28.10
2006,12,13,13,15,32.70
2006,12,13,13,16,43.50
2006,12,13,13,17,23.30
2006,12,13,13,18,19.20
2006,12,13,13,19,13.40
2006,12,13,13,20,17.50
2006,12,13,13,21,13.80
2006,12,13,13,22,15.90
2006,12,13,13,23,18.10
2006,12,13,13,24,19.50
2006,12,13,13,25,12.10
2006,12,13,13,26,11.80
2006,12,13,13,27,26.00
2006,12,13,13,28,20.80
2006,12,13,13,29,23.10
2006,12,13,13,30,21.20
2006,12,13,13,31,31.00
2006,12,13,13,32,17.50
2006,12,13,13,33,21.90
2006,12,13,13,34,18.70
2006,12,13,13,35,9.00
2006,12,13,13,36,6.90
2006,12,13,13,37,14.30
2006,12,13,13,38,15.10
2006,12,13,13,39,9.40
2006,12,13,13,40,13.60
2006,12,13,13,41,15.80
2006,12,13,13,42,10.40
2006,12,13,13,43,16.60
2006,12,13,13,44,18.70
2006,12,13,13,45,19.70
2006,12,13,13,46,31.00
2006,12,13,13,47,26.40
2006,12,13,13,48,17.40
2006,12,13,13,49,22.50
2006,12,13,13,50,12.90
2006,12,13,13,51,22.70
2006,12,13,13,52,18.90
2006,12,13,13,53,19.10
2006,12,13,13,54,19.60
2006,12,13,13,55,23.30
2006,12,13,13,56,14.60
2006,12,13,13,57,19.70
2006,12,13,13,58,13.10
2006,12,13,13,59,14.70
2006,12,13,14,00,15.20
2006,12,13,14,01,19.60
2006,12,13,14,02,20.70
2006,12,13,14,03,23.70
2006,12,13,14,04,27.50
2006,12,13,14,05,18.60
2006,12,13,14,06,24.10
2006,12,13,14,07,25.80
2006,12,13,14,08,23.20
2006,12,13,14,09,18.80
2006,12,13,14,10,19.00
2006,12,13,14,11,19.30
2006,12,13,14,12,18.90
2006,12,13,14,13,30.00
2006,12,13,14,14,22.10
2006,12,13,14,15,31.90
2006,12,13,14,16,15.60
2006,12,13,14,17,14.20
2006,12,13,14,18,19.40
2006,12,13,14,19,27.10
2006,12,13,14,20,20.20
2006,12,13,14,21,24.00
2006,12,13,14,22,26.00
2006,12,13,14,23,23.30
2006,12,13,14,24,19.00
2006,12,13,14,25,17.10
2006,12,13,14,26,14.20
2006,12,13,14,27,13.90
2006,12,13,14,28,22.50
2006,12,13,14,29,12.50
2006,12,13,14,30,11.30
2006,12,13,14,31,15.40
2006,12,13,14,32,15.20
2006,12,13,14,33,17.50
2006,12,13,14,34,12.90
2006,12,13,14,35,19.10
2006,12,13,14,36,13.70
2006,12,13,14,37,20.30
2006,12,13,14,38,10.20
2006,12,13,14,39,12.60
2006,12,13,14,40,11.30
2006,12,13,14,41,7.50
2006,12,13,14,42,11.40
2006,12,13,14,43,12.80
2006,12,13,14,44,12.90
2006,12,13,14,45,13.60
2006,12,13,14,46,15.80
2006,12,13,14,47,15.30
2006,12,13,14,48,11.90
2006,12,13,14,49,6.20
2006,12,13,14,50,14.80
2006,12,13,14,51,12.30
2006,12,13,14,52,9.30
2006,12,13,14,53,11.70
2006,12,13,14,54,9.20
2006,12,13,14,55,9.00
2006,12,13,14,56,8.40
2006,12,13,14,57,7.10
2006,12,13,14,58,11.70
2006,12,13,14,59,16.40
2006,12,13,15,00,16.30
2006,12,13,15,01,12.90
2006,12,13,15,02,9.10
2006,12,13,15,03,8.80
2006,12,13,15,04,11.50
2006,12,13,15,05,7.70
2006,12,13,15,06,12.00
2006,12,13,15,07,14.10
2006,12,13,15,08,18.30
2006,12,13,15,09,22.90
2006,12,13,15,10,14.70
2006,12,13,15,11,18.20
2006,12,13,15,12,8.60
2006,12,13,15,13,19.60
2006,12,13,15,14,22.40
2006,12,13,15,15,22.70
2006,12,13,15,16,20.50
2006,12,13,15,17,13.90
2006,12,13,15,18,26.00
2006,12,13,15,19,29.00
2006,12,13,15,20,25.30
2006,12,13,15,21,27.30
2006,12,13,15,22,15.50
2006,12,13,15,23,21.10
2006,12,13,15,24,18.30
2006,12,13,15,25,18.00
2006,12,13,15,26,4.80
2006,12,13,15,27,3.90
2006,12,13,15,28,9.50
2006,12,13,15,29,7.30
2006,12,13,15,30,10.30
2006,12,13,15,31,10.00
2006,12,13,15,32,10.30
2006,12,13,15,33,9.00
2006,12,13,15,34,5.00
2006,12,13,15,35,10.10
2006,12,13,15,36,8.60
2006,12,13,15,37,6.00
2006,12,13,15,38,11.90
2006,12,13,15,39,11.60
2006,12,13,15,40,16.10
2006,12,13,15,41,15.60
2006,12,13,15,42,11.30
2006,12,13,15,43,14.60
2006,12,13,15,44,15.60
2006,12,13,15,45,14.30
2006,12,13,15,46,9.40
2006,12,13,15,47,13.80
2006,12,13,15,48,12.70
2006,12,13,15,49,17.90
2006,12,13,15,50,8.50
2006,12,13,15,51,14.60
2006,12,13,15,52,17.50
2006,12,13,15,53,14.10
2006,12,13,15,54,9.70
2006,12,13,15,55,12.20
2006,12,13,15,56,9.50
2006,12,13,15,57,6.30
2006,12,13,15,58,12.70
2006,12,13,15,59,13.00
2006,12,13,16,00,8.70
2006,12,13,16,01,17.20
2006,12,13,16,02,7.30
2006,12,13,16,03,14.30
2006,12,13,16,04,13.90
2006,12,13,16,05,13.60
2006,12,13,16,06,10.90
2006,12,13,16,07,13.40
2006,12,13,16,08,13.60
2006,12,13,16,09,10.40
2006,12,13,16,10,13.50
2006,12,13,16,11,7.60
2006,12,13,16,12,7.40
2006,12,13,16,13,13.70
2006,12,13,16,14,8.70
2006,12,13,16,15,8.90
2006,12,13,16,16,10.90
2006,12,13,16,17,6.70
2006,12,13,16,18,8.00
2006,12,13,16,19,7.70
2006,12,13,16,20,4.00
2006,12,13,16,21,6.50
2006,12,13,16,22,4.10
2006,12,13,16,23,1.30
2006,12,13,16,24,4.50
2006,12,13,16,25,7.20
2006,12,13,16,26,6.30
2006,12,13,16,27,10.00
2006,12,13,16,28,7.70
2006,12,13,16,29,5.80
2006,12,13,16,30,5.30
2006,12,13,16,31,3.90
2006,12,13,16,32,0.10
2006,12,13,16,33,4.80
2006,12,13,16,34,11.90
2006,12,13,16,35,9.50
2006,12,13,16,36,10.40
2006,12,13,16,37,11.30
2006,12,13,16,38,4.30
2006,12,13,16,39,6.70
2006,12,13,16,40,8.10
2006,12,13,16,41,10.60
2006,12,13,16,42,10.40
2006,12,13,16,43,7.00
2006,12,13,16,44,9.60
2006,12,13,16,45,11.50
2006,12,13,16,46,4.80
2006,12,13,16,47,4.40
2006,12,13,16,48,6.20
2006,12,13,16,49,2.30
2006,12,13,16,50,2.30
2006,12,13,16,51,9.50
2006,12,13,16,52,7.00
2006,12,13,16,53,5.40
2006,12,13,16,54,4.80
2006,12,13,16,55,6.70
2006,12,13,16,56,4.40
2006,12,13,16,57,7.60
2006,12,13,16,58,7.10
2006,12,13,16,59,16.00
2006,12,13,17,00,10.10
2006,12,13,17,01,9.60
2006,12,13,17,02,16.60
2006,12,13,17,03,17.50
2006,12,13,17,04,12.60
2006,12,13,17,05,14.00
2006,12,13,17,06,14.20
2006,12,13,17,07,17.10
2006,12,13,17,08,21.90
2006,12,13,17,09,16.40
2006,12,13,17,10,23.60
2006,12,13,17,11,23.60
2006,12,13,17,12,19.20
2006,12,13,17,13,21.90
2006,12,13,17,14,19.30
2006,12,13,17,15,19.80
2006,12,13,17,16,18.80
2006,12,13,17,17,23.90
2006,12,13,17,18,20.90
2006,12,13,17,19,14.80
2006,12,13,17,20,23.20
2006,12,13,17,21,7.90
2006,12,13,17,22,13.80
2006,12,13,17,23,19.00
2006,12,13,17,24,21.10
2006,12,13,17,25,16.30
2006,12,13,17,26,9.30
2006,12,13,17,27,14.60
2006,12,13,17,28,9.50
2006,12,13,17,29,11.40